Terug naar catalogus

CZ-2C DEB

ActiefSSO
NORAD 40263·DEBRIS·🇨🇳 China

Gelanceerd Sep 28, 2014 vanaf Jiuquan Satellite Launch Center

Loading…

Volgende Passages (komende 24 uur)

TLE

VersSource: Space-Track

Epoch: Sep 14, 2026, 13:44 UTC

1 40263U 14059C   26257.57248296  .00007863  00000-0  72459-3 0  9993
2 40263  98.2021  14.6811 0051554 349.8537  10.1636 14.93975616636417

Volg CZ-2C DEB in realtime met AllMySat

Download on the App Store